NIMBUS 2 DEB

Satellite information

Favourite Embed

Satellite Type and Status

DEBRISIN ORBIT

Key statistics

Satellite NIMBUS 2 DEB at a glance.

Uptime

21603

Days in orbit

Revolutions

≈ 13.7

Per day

Orbit

SSO

Sun Synchronous Orbit

Inclination

100.3

Latest

Satellite identification and parameters

Extended collection of information and parameters for NIMBUS 2 DEB.

Object identification

Identified? True

Debris? True

Object name: NIMBUS 2 DEB

International designator: 1966-040V

Object number (NORAD): 28207

Object ID (CCSDS): 28207

Country: UNITED STATES OF AMERICA (US)

Current information (Y/N): Y

RCS size: SMALL

Orbital parameters

Period: 104.911 minutes

Inclination: 100.276 deg

SMA: 7368.406 km

Apoapsis: 1019.878 km

Periapsis: 960.663 km

RAAN: 216.3007 deg

Eccentricy: 0.0040182

Argument of periapsis: 285.865 deg

Mean anomaly: 103.8404 deg

Mean motion: 13.72595189 rev/day

Mean motion (dot): 0.00002344 rev/day2

B* drag term: 0.0025957 1/REarth

Two-line elements (TLE)

Creation date: July 5, 2025, 5:45 p.m.

Reference frame: TEME

Reference center: EARTH

Epoch: July 5, 2025, 12:35 a.m. UTC

TLE line 0: 0 NIMBUS 2 DEB

TLE line 1: 1 28207U 66040V 25186.02443985 .00002344 00000-0 25957-2 0 9995

TLE line 2: 2 28207 100.2760 216.3007 0040182 285.8650 103.8404 13.72595189565449

Live tracking on map

Real-time ground track for satellite NIMBUS 2 DEB.

In-orbit conjunctions

A list of the most updated potential collisions computed for object NIMBUS 2 DEB.

Target Orbit TCA Probability of collision Miss distance Type
COSMOS 1759 LEO 2025-01-13 19:55:47 0.0003160247 314.0 (m) PAYLOAD
COSMOS 1375 DEB LEO 2024-11-10 20:00:02 0.0001369574 262.0 (m) DEBRIS
COSMOS 1275 DEB LEO 2024-07-29 11:48:47 0.0001017905 241.0 (m) DEBRIS

Associated space launch

Nimbus 2, the second in a series of second-generation meteorological research-and-development satellites, added an additional medium-resolution infrared radiometer (MRIR) compared to Nimbus 1.

NIMBUS 2 DEB was lifted into orbit during the mission ‘Thor SLV-2A Agena B | Nimbus 2’, on board a Thor SLV-2A Agena B space rocket.

The launch took place on May 15, 1966, 7:55 a.m. from Space Launch Complex 2E.

For more information about the launch, click the button.

Launch to space Thor SLV-2A Agena B | Nimbus 2
Thor SLV-2A Agena B | Nimbus 2

Agency: N/A

Status: Launch Successful

Launch date: May 15, 1966, 7:55 a.m. UTC

Rocket: Thor SLV-2A Agena B

Launch pad: Space Launch Complex 2E

Location: Vandenberg SFB, CA, USA

...

Latest news about this satellite

There are no fresh news available about this satellite. Check back as we update our databases every day.


Newsletter sign-up

Weekly statistics, charts and insights to help you stay on top of the space industry.